FENGYUN 1C DEB, 31740

Orbit data source: Space-Track

FENGYUN 1C DEB, 31740 is space debris in SSO originally from a launch on Mon, 10 May 1999 UTC launched from the Taiyaun Space Center, China (TSC). Fengyun 1C debris stems from the Chinese weather satellite Fengyun-1C, which was intentionally destroyed by a Chinese anti-satellite missile in 2007. This event dramatically increased the amount of space debris, with thousands of trackable fragments posing hazards to satellites and human spaceflight. The Fengyun 1C debris cloud has become a focal point in discussions about space sustainability and the need for international regulations to prevent the creation of new debris.

Loading next visibility...
Identifier
31740, 1999-025CEP
Orbit
SSO
Country
Flag of CNCN / PRC
Related business
Manufacturer
Unknown
Mission
Spacecraft
Bus & Motor
Unknown
Mass
Unknown
Launch date (UTC)
1999-05-10 (27 years ago)
Launch vehicle
Unknown
Launch site
Taiyaun Space Center, China (TSC)
Object type
Payload
Rocket body
Debris
Shape & HBR
Unknown shape, 0.1 m
Radar Cross Section
Small (<0.1 m²)

Expand to show TLE details & history
Last TLE update: 2 months ago

TLE from 2 months ago
0 FENGYUN 1C DEB
1 31740U 99025CEP 26015.45331263  .00002222  00000-0  68522-3 0  9995
2 31740  99.8218 196.8556 0024116 331.0740  60.2399 14.42475306655614
Epoch: 2026-01-15T10:52Z
TLE epoch observation values (Epoch: 2026-01-15T10:52:46.211Z)
Latitude
31.09748°
Longitude
-87.20545°
Altitude
745.746 km
Speed
7.489 km/s
True Right ascension
12h 43m 34s
True Declination
30° 56' 43"
Sunlit
Object was in daylight at epoch
Visualization orbit readout
Latitude
Unknown
Longitude
Unknown
Altitude
Unknown
Speed
Unknown
Apparent Right ascension
Unknown
Apparent Declination
Unknown
Sunlit
N/A
Visualization observer readout
Local Sidereal Time
14:42:04
Azimuth
Unknown
Elevation
Unknown
Doppler factor
Unknown
Orbital elements
Apogee altitude
764.702 km
Perigee altitude
730.333 km
Semi-major axis
7,125.654 km
Eccentricity
0.00241
Inclination
99.8218°
RAAN
196.8556°
Arg. of periapsis
331.074°
True anomaly
60.48016°
Mean anomaly
60.2399°
Eccentric anomaly
60.35999°
Mean motion
3.60833 °/min
Orbital period
99.77 mins
BSTAR
0.00068522
Loading maneuver chart data...
Computing Atmospheric mass density...

Documentation

Showing up to 5 results
|